Content
SEND FEEDBACK

Daily
Averages
Monthly
Summary
United States of America

MALDEN, MISSOURI


Home > North America > United States > Missouri
Elevation: 295 feet     Latitude: 36 36N     Longitude: 089 59W

WEATHER
 
SELECT A DAY
Number of Records: 207,877;   Date Range: 1/1/95 - 9/3/14
 
SHARE

PRINT THIS DATA

[ ← Previous Day ]
WEATHER ALMANAC - MAY 16, 2014
[ Next Day → ]
[ °C ]   °F
Weather ElementAverageHighLow
Temperature52.6 °F66.9 °F (4:53 pm)42.1 °F (5:53 am)
Dewpoint39.7 °F48 °F (8:53 pm)30.9 °F (4:53 pm)
Humidity65.7 %87 % (12:47 am)26 % (4:53 pm)
Barometer30.08 in30.13 in (11:53 pm)30.04 in (3:53 pm)
Wind Speed4.2 mph12.7 mph (3:53 pm)
Wind Gust19.6 mph (12:53 pm)
Weather ElementAverage
Visibility6.9 mi
Wind DirectionSE (139.4 °)

Weather ElementTotal
Precipitation0.01 in
Heating Degree Days10.5 (Base 65)
Growing Degree Days4.5 (Base 50)
Averaged from 31 records on May 16, 2014
WEATHER CONDITIONS BREAKOUT
WIND DIRECTION BREAKOUT
WEATHER BY HOUR - MAY 16, 2014
[ °C ]   °F
Local TimeTemperatureDewpointHumidityBarometerVisibilityWind DirectionWind SpeedGust SpeedPrecipitationEventsConditions
12:40 AM48.0 °F44.1 °F86 %30.09 in0.5 miCalmFogFog
12:47 AM48.2 °F44.6 °F87 %30.09 in2.5 miCalmScattered Clouds
12:53 AM48.0 °F44.1 °F86 %30.09 in1.5 miCalmScattered Clouds
1:01 AM48.0 °F44.1 °F86 %30.09 in1.0 miCalmMist
1:04 AM48.0 °F44.1 °F86 %30.09 in2.0 miCalmPartly Cloudy
1:21 AM46.9 °F43.0 °F86 %30.08 in5.0 miWest (280°)3.5 mphClear
1:53 AM46.9 °F43.0 °F86 %30.08 in1.2 miCalmPartly Cloudy
1:55 AM46.9 °F43.0 °F86 %30.08 in0.8 miCalmMist
2:05 AM46.9 °F43.0 °F86 %30.07 in1.5 miCalmPartly Cloudy
2:20 AM46.9 °F42.1 °F83 %30.07 in1.0 miCalmHaze
2:24 AM46.0 °F42.1 °F86 %30.07 in2.0 miCalmClear
2:32 AM46.0 °F42.1 °F86 %30.07 in6.0 miCalmClear
3:53 AM44.1 °F37.9 °F79 %30.07 in10.0 miCalmClear
4:53 AM43.0 °F36.0 °F76 %30.08 in10.0 miCalmClear
5:53 AM42.1 °F35.1 °F76 %30.09 in10.0 miWNW (300°)6.9 mphScattered Clouds
6:53 AM44.1 °F35.1 °F71 %30.10 in10.0 miWNW (300°)9.2 mphMostly Cloudy
7:53 AM46.9 °F37.9 °F71 %30.11 in10.0 miNW (320°)8.1 mphPartly Cloudy
8:53 AM51.1 °F39.0 °F63 %30.11 in10.0 miNW (310°)6.9 mphMostly Cloudy
9:53 AM55.0 °F39.9 °F57 %30.10 in10.0 miNW (320°)6.9 mphClear
10:53 AM57.9 °F37.9 °F47 %30.10 in10.0 miWest (280°)8.1 mphClear
11:53 AM62.1 °F37.0 °F39 %30.09 in10.0 miNorthClear
12:53 PM62.1 °F36.0 °F38 %30.08 in10.0 miWNW (300°)10.4 mph19.6 mph
1:53 PM64.0 °F36.0 °F35 %30.06 in10.0 miWSW (250°)9.2 mphMostly Cloudy
3:53 PM66.0 °F32.0 °F28 %30.04 in10.0 miWNW (300°)12.7 mph17.3 mphPartly Cloudy
4:53 PM66.9 °F30.9 °F26 %30.04 in10.0 miWest (280°)5.8 mphScattered Clouds
5:53 PM64.0 °F36.0 °F35 %30.04 in10.0 miNorth (360°)8.1 mphScattered Clouds
6:53 PM62.1 °F39.0 °F43 %30.05 in10.0 miNNE (20°)5.8 mphClear
7:53 PM60.1 °F42.1 °F51 %30.06 in10.0 miNNE (20°)3.5 mphClear
8:53 PM57.9 °F48.0 °F70 %30.08 in10.0 miNNE (30°)4.6 mphOvercast
10:53 PM59.0 °F34.0 °F39 %30.12 in10.0 miNW (310°)6.9 mph0.00 inOvercast
11:53 PM54.0 °F41.0 °F62 %30.13 in10.0 miNNW (340°)10.4 mph0.01 inOvercast
Hourly data recorded from KPOF, located miles away from Malden, Missouri







STORIES FROM OUR PARTNERS